| time (UTC) | temp F | wind direction | speed MPH | gust MPH | rain 1hr in | rain 24hr in | rain mn in | humidity % | barometer mb |
| 20260507113201 | 71 | 355 | 1.0 | 5.0 | 0.00 | 0.62 | 0.01 | 4 | 989.9 |
| 20260507113148 | 71 | 4 | 1.0 | 5.0 | 0.00 | 0.62 | 0.01 | 5 | 989.9 |
| 20260507111703 | 74 | 343 | 2.0 | 4.0 | 0.00 | 0.62 | 0.01 | 4 | 990.0 |
| 20260507111648 | 73 | 358 | 1.0 | 4.0 | 0.00 | 0.62 | 0.01 | 4 | 990.0 |
| 20260507110201 | 72 | 6 | 1.0 | 4.0 | 0.00 | 0.62 | 0.01 | 4 | 990.1 |
| 20260507110148 | 72 | 264 | 2.0 | 5.0 | 0.00 | 0.62 | 0.01 | 4 | 990.1 |
| 20260507104648 | 68 | 16 | 3.0 | 6.0 | 0.00 | 0.62 | 0.01 | 5 | 990.1 |
| 20260507103201 | 68 | 359 | 1.0 | 3.0 | 0.00 | 0.62 | 0.01 | 5 | 990.4 |
| 20260507103149 | 68 | 327 | 1.0 | 2.0 | 0.00 | 0.62 | 0.01 | 5 | 990.4 |
| 20260507101701 | 68 | 10 | 0.0 | 2.0 | 0.00 | 0.62 | 0.01 | 5 | 990.3 |
| 20260507101649 | 68 | 20 | 0.0 | 2.0 | 0.00 | 0.62 | 0.01 | 5 | 990.3 |
| 20260507100201 | 68 | 64 | 1.0 | 4.0 | 0.00 | 0.62 | 0.01 | 6 | 990.5 |
| 20260507100148 | 69 | 357 | 3.0 | 4.0 | 0.00 | 0.62 | 0.01 | 6 | 990.5 |
| 20260507094701 | 69 | 328 | 2.0 | 4.0 | 0.00 | 0.62 | 0.01 | 5 | 990.4 |
| 20260507094648 | 69 | 256 | 2.0 | 4.0 | 0.00 | 0.62 | 0.01 | 5 | 990.4 |
| 20260507093201 | 70 | 26 | 2.0 | 4.0 | 0.00 | 0.62 | 0.01 | 5 | 990.4 |
| 20260507093148 | 71 | 39 | 1.0 | 3.0 | 0.00 | 0.62 | 0.01 | 5 | 990.4 |
| 20260507091701 | 67 | 351 | 1.0 | 3.0 | 0.00 | 0.62 | 0.01 | 5 | 990.2 |
| 20260507091649 | 67 | 326 | 1.0 | 3.0 | 0.00 | 0.62 | 0.01 | 5 | 990.2 |
| 20260507090201 | 70 | 40 | 0.0 | 2.0 | 0.00 | 0.62 | 0.01 | 6 | 990.4 |
| 20260507090148 | 70 | 36 | 0.0 | 1.0 | 0.00 | 0.62 | 0.01 | 5 | 990.4 |
| 20260507084701 | 68 | 6 | 1.0 | 2.0 | 0.00 | 0.62 | 0.01 | 6 | 990.3 |
| 20260507084648 | 68 | 324 | 1.0 | 3.0 | 0.00 | 0.62 | 0.01 | 6 | 990.3 |
| 20260507083148 | 71 | 292 | 4.0 | 6.0 | 0.00 | 0.62 | 0.01 | 5 | 990.4 |
| 20260507081649 | 64 | 29 | 0.0 | 3.0 | 0.00 | 0.62 | 0.01 | 6 | 990.4 |
| 20260507080149 | 66 | 15 | 0.0 | 1.0 | 0.00 | 0.62 | 0.01 | 7 | 990.1 |
| 20260507074648 | 62 | 52 | 0.0 | 2.0 | 0.00 | 0.62 | 0.01 | 7 | 990.2 |
| 20260507073148 | 60 | 22 | 0.0 | 3.0 | 0.00 | 0.62 | 0.01 | 7 | 989.9 |
| 20260507071648 | 59 | 15 | 0.0 | 2.0 | 0.00 | 0.62 | 0.01 | 8 | 989.9 |
| 20260507070202 | 61 | 71 | 0.0 | 0.0 | 0.00 | 0.62 | 0.01 | 7 | 989.5 |
| 20260507070149 | 61 | 44 | 0.0 | 1.0 | 0.00 | 0.62 | 0.01 | 7 | 989.5 |
| 20260507064701 | 60 | 26 | 0.0 | 1.0 | 0.00 | 0.62 | 0.01 | 8 | 989.6 |
| 20260507064649 | 60 | 26 | 0.0 | 1.0 | 0.00 | 0.62 | 0.01 | 7 | 989.6 |
| 20260507063201 | 66 | 30 | 0.0 | 0.0 | 0.00 | 0.62 | 0.01 | 6 | 989.9 |
| 20260507063148 | 65 | 16 | 0.0 | 0.0 | 0.00 | 0.62 | 0.01 | 7 | 989.9 |
| 20260507061702 | 65 | 22 | 0.0 | 0.0 | 0.00 | 0.62 | 0.01 | 6 | 989.8 |
| 20260507061648 | 65 | 21 | 0.0 | 0.0 | 0.00 | 0.62 | 0.01 | 6 | 989.8 |
| 20260507060201 | 62 | 33 | 0.0 | 0.0 | 0.00 | 0.62 | 0.01 | 7 | 989.7 |
| 20260507060148 | 62 | 32 | 0.0 | 0.0 | 0.00 | 0.62 | 0.01 | 7 | 989.7 |
| 20260507054701 | 61 | 16 | 0.0 | 0.0 | 0.00 | 0.63 | 0.01 | 7 | 989.6 |
| 20260507054649 | 61 | 16 | 0.0 | 0.0 | 0.00 | 0.63 | 0.01 | 7 | 989.6 |
| 20260507053148 | 53 | 17 | 0.0 | 0.0 | 0.00 | 0.63 | 0.01 | 8 | 989.3 |
| 20260507051701 | 52 | 53 | 0.0 | 1.0 | 0.00 | 0.63 | 0.01 | 9 | 989.2 |
| 20260507051648 | 52 | 61 | 0.0 | 0.0 | 0.00 | 0.63 | 0.01 | 9 | 989.2 |
| 20260507050148 | 53 | 22 | 0.0 | 0.0 | 0.00 | 0.63 | 0.01 | 9 | 989.4 |
| 20260507044701 | 49 | 5 | 1.0 | 1.0 | 0.00 | 0.63 | 0.01 | 9 | 989.3 |
| 20260507044648 | 49 | 348 | 1.0 | 1.0 | 0.00 | 0.63 | 0.01 | 9 | 989.3 |
| 20260507043149 | 47 | 18 | 0.0 | 0.0 | 0.00 | 0.63 | 0.01 | 9 | 989.2 |
| 20260507041648 | 48 | 24 | 0.0 | 0.0 | 0.00 | 0.63 | 0.01 | 9 | 988.6 |
| 20260507040148 | 48 | 15 | 0.0 | 0.0 | 0.00 | 0.63 | 0.01 | 9 | 988.7 |
| 20260507034648 | 48 | 260 | 3.0 | 4.0 | 0.01 | 0.64 | 0.01 | 9 | 988.6 |
| 20260507033149 | 48 | 328 | 1.0 | 2.0 | 0.01 | 0.64 | 0.01 | 9 | 988.6 |
| 20260507031649 | 49 | 233 | 2.0 | 3.0 | 0.01 | 0.64 | 0.01 | 9 | 988.5 |
| 20260507030203 | 50 | 310 | 1.0 | 2.0 | 0.01 | 0.64 | 0.01 | 9 | 988.9 |
| 20260507030148 | 50 | 314 | 1.0 | 2.0 | 0.01 | 0.64 | 0.01 | 9 | 988.9 |
| 20260507024701 | 50 | 11 | 0.0 | 1.0 | 0.00 | 0.63 | 0.00 | 9 | 988.7 |
| 20260507024648 | 50 | 4 | 0.0 | 2.0 | 0.00 | 0.63 | 0.00 | 9 | 988.7 |
| 20260507023148 | 50 | 6 | 0.0 | 0.0 | 0.00 | 0.63 | 0.00 | 9 | 988.7 |
| 20260507021702 | 50 | 14 | 0.0 | 0.0 | 0.00 | 0.63 | 0.00 | 9 | 988.7 |
| 20260507021649 | 50 | 14 | 0.0 | 1.0 | 0.00 | 0.63 | 0.00 | 9 | 988.7 |
| 20260507020202 | 50 | 358 | 0.0 | 1.0 | 0.00 | 0.63 | 0.00 | 9 | 988.6 |
| 20260507020149 | 50 | 316 | 0.0 | 1.0 | 0.00 | 0.63 | 0.00 | 9 | 988.6 |
| 20260507014702 | 51 | 28 | 0.0 | 1.0 | 0.00 | 0.63 | 0.00 | 9 | 988.5 |
| 20260507014648 | 51 | 33 | 0.0 | 1.0 | 0.00 | 0.63 | 0.00 | 9 | 988.5 |
| 20260507013148 | 51 | 26 | 0.0 | 0.0 | 0.00 | 0.63 | 0.00 | 9 | 988.3 |
| 20260507011701 | 52 | 8 | 1.0 | 1.0 | 0.00 | 0.63 | 0.00 | 9 | 988.3 |
| 20260507011648 | 52 | 355 | 1.0 | 1.0 | 0.00 | 0.63 | 0.00 | 9 | 988.3 |
| 20260507010202 | 52 | 203 | 1.0 | 3.0 | 0.00 | 0.63 | 0.00 | 9 | 988.5 |
| 20260507010149 | 52 | 77 | 1.0 | 3.0 | 0.00 | 0.63 | 0.00 | 9 | 988.5 |
| 20260507004702 | 53 | 187 | 2.0 | 2.0 | 0.00 | 0.63 | 0.00 | 9 | 988.7 |
| 20260507004649 | 53 | 300 | 1.0 | 2.0 | 0.00 | 0.63 | 0.00 | 9 | 988.7 |
| 20260507003148 | 52 | 29 | 0.0 | 0.0 | 0.00 | 0.63 | 0.00 | 9 | 988.8 |
| 20260507001648 | 52 | 330 | 1.0 | 1.0 | 0.00 | 0.63 | 0.00 | 9 | 988.7 |
| 20260507000148 | 52 | 252 | 1.0 | 3.0 | 0.00 | 0.63 | 0.00 | 9 | 989.0 |
| 20260506234649 | 52 | 116 | 1.0 | 3.0 | 0.00 | 0.63 | 0.00 | 9 | 989.0 |
| 20260506233148 | 53 | 14 | 0.0 | 0.0 | 0.00 | 0.63 | 0.00 | 9 | 989.2 |
| 20260506231648 | 53 | 227 | 2.0 | 3.0 | 0.00 | 0.63 | 0.00 | 9 | 989.3 |
| 20260506230148 | 52 | 14 | 0.0 | 0.0 | 0.00 | 0.63 | 0.00 | 9 | 989.3 |
| 20260506224701 | 52 | 355 | 1.0 | 2.0 | 0.00 | 0.63 | 0.00 | 9 | 989.2 |
| 20260506224648 | 52 | 300 | 2.0 | 2.0 | 0.00 | 0.63 | 0.00 | 9 | 989.2 |
| 20260506223202 | 53 | 347 | 0.0 | 1.0 | 0.00 | 0.63 | 0.00 | 9 | 988.9 |
| 20260506223149 | 53 | 326 | 0.0 | 1.0 | 0.00 | 0.63 | 0.00 | 9 | 988.9 |
| 20260506221701 | 53 | 341 | 1.0 | 1.0 | 0.00 | 0.63 | 0.00 | 9 | 989.0 |
| 20260506221648 | 53 | 343 | 1.0 | 1.0 | 0.00 | 0.63 | 0.00 | 9 | 989.0 |
| 20260506220201 | 53 | 348 | 1.0 | 2.0 | 0.00 | 0.63 | 0.00 | 9 | 989.3 |
| 20260506220148 | 53 | 333 | 1.0 | 2.0 | 0.00 | 0.63 | 0.00 | 9 | 989.3 |
| 20260506214649 | 53 | 32 | 0.0 | 0.0 | 0.00 | 0.65 | 0.65 | 9 | 989.0 |
| 20260506213201 | 52 | 327 | 0.0 | 5.0 | 0.00 | 0.65 | 0.65 | 9 | 989.2 |
| 20260506213148 | 52 | 10 | 0.0 | 5.0 | 0.00 | 0.65 | 0.65 | 9 | 989.2 |
| 20260506211702 | 53 | 292 | 1.0 | 5.0 | 0.00 | 0.65 | 0.65 | 9 | 989.0 |
| 20260506211649 | 53 | 264 | 4.0 | 5.0 | 0.00 | 0.65 | 0.65 | 9 | 989.0 |
| 20260506210202 | 54 | 211 | 3.0 | 4.0 | 0.02 | 0.67 | 0.65 | 9 | 988.9 |
| 20260506210148 | 54 | 227 | 2.0 | 3.0 | 0.02 | 0.67 | 0.65 | 9 | 988.9 |
| 20260506204648 | 54 | 32 | 0.0 | 1.0 | 0.02 | 0.65 | 0.65 | 9 | 988.6 |
| 20260506203148 | 54 | 6 | 0.0 | 1.0 | 0.02 | 0.65 | 0.65 | 9 | 988.7 |
| 20260506201648 | 55 | 32 | 0.0 | 0.0 | 0.04 | 0.67 | 0.64 | 9 | 988.6 |
| 20260506200149 | 55 | 317 | 1.0 | 1.0 | 0.11 | 0.74 | 0.63 | 9 | 988.4 |
| 20260506194648 | 55 | 48 | 0.0 | 1.0 | 0.13 | 0.63 | 0.63 | 9 | 988.2 |
| 20260506193148 | 56 | 4 | 0.0 | 2.0 | 0.15 | 0.64 | 0.61 | 9 | 988.2 |
| 20260506191648 | 57 | 290 | 1.0 | 2.0 | 0.22 | 0.72 | 0.57 | 9 | 987.9 |
| 20260506190202 | 57 | 302 | 1.0 | 2.0 | 0.18 | 0.68 | 0.50 | 9 | 987.6 |
| 20260506190149 | 57 | 315 | 1.0 | 2.0 | 0.18 | 0.68 | 0.50 | 9 | 987.6 |
| 20260506184649 | 57 | 18 | 0.0 | 1.0 | 0.35 | 0.62 | 0.48 | 9 | 987.4 |
| 20260506183202 | 57 | 274 | 3.0 | 5.0 | 0.29 | 0.57 | 0.42 | 9 | 987.2 |
| 20260506183148 | 57 | 251 | 4.0 | 5.0 | 0.29 | 0.57 | 0.42 | 9 | 987.2 |
| 20260506181701 | 57 | 237 | 3.0 | 4.0 | 0.20 | 0.48 | 0.33 | 9 | 987.6 |
| 20260506181648 | 57 | 311 | 3.0 | 4.0 | 0.20 | 0.48 | 0.33 | 9 | 987.6 |
| 20260506180201 | 57 | 243 | 2.0 | 3.0 | 0.16 | 0.44 | 0.29 | 9 | 987.2 |
| 20260506180148 | 57 | 253 | 2.0 | 3.0 | 0.16 | 0.44 | 0.29 | 9 | 987.2 |
| 20260506174702 | 58 | 126 | 2.0 | 3.0 | 0.00 | 0.13 | 0.13 | 8 | 986.7 |
| 20260506174649 | 57 | 188 | 2.0 | 3.0 | 0.00 | 0.13 | 0.13 | 8 | 986.7 |
| 20260506173201 | 58 | 286 | 2.0 | 3.0 | 0.00 | 0.13 | 0.13 | 8 | 986.7 |
| 20260506173149 | 58 | 240 | 1.0 | 3.0 | 0.00 | 0.13 | 0.13 | 8 | 986.7 |
| 20260506171701 | 58 | 241 | 1.0 | 3.0 | 0.00 | 0.12 | 0.12 | 8 | 986.6 |
| 20260506171648 | 58 | 341 | 2.0 | 3.0 | 0.00 | 0.12 | 0.12 | 8 | 986.6 |
| 20260506170201 | 59 | 2 | 2.0 | 8.0 | 0.00 | 0.12 | 0.12 | 8 | 986.3 |
| 20260506170148 | 59 | 302 | 3.0 | 8.0 | 0.00 | 0.12 | 0.12 | 8 | 986.3 |
| 20260506164701 | 60 | 340 | 3.0 | 4.0 | 0.01 | 0.13 | 0.12 | 8 | 986.3 |
| 20260506164648 | 60 | 291 | 0.0 | 4.0 | 0.01 | 0.13 | 0.12 | 8 | 986.3 |
| 20260506163149 | 61 | 349 | 1.0 | 8.0 | 0.02 | 0.14 | 0.12 | 8 | 986.0 |
| 20260506161648 | 62 | 19 | 1.0 | 4.0 | 0.02 | 0.14 | 0.12 | 8 | 986.2 |
| 20260506160148 | 62 | 298 | 0.0 | 1.0 | 0.02 | 0.14 | 0.12 | 8 | 986.0 |
| 20260506154648 | 66 | 236 | 8.0 | 17.0 | 0.00 | 0.10 | 0.09 | 7 | 985.8 |
| 20260506153149 | 67 | 293 | 3.0 | 5.0 | 0.00 | 0.10 | 0.09 | 7 | 985.6 |
| 20260506151649 | 66 | 258 | 6.0 | 11.0 | 0.00 | 0.10 | 0.09 | 7 | 985.8 |
| 20260506150201 | 66 | 238 | 5.0 | 5.0 | 0.00 | 0.10 | 0.09 | 7 | 985.9 |
| 20260506150148 | 66 | 262 | 5.0 | 10.0 | 0.00 | 0.10 | 0.09 | 7 | 985.9 |
| 20260506144701 | 67 | 251 | 2.0 | 4.0 | 0.00 | 0.18 | 0.09 | 7 | 985.9 |
| 20260506144648 | 67 | 312 | 2.0 | 5.0 | 0.00 | 0.18 | 0.09 | 7 | 985.9 |
| 20260506143201 | 63 | 356 | 0.0 | 3.0 | 0.05 | 0.23 | 0.09 | 8 | 985.9 |
| 20260506143148 | 63 | 351 | 0.0 | 3.0 | 0.05 | 0.23 | 0.09 | 8 | 985.9 |
| 20260506141702 | 62 | 243 | 4.0 | 5.0 | 0.05 | 0.23 | 0.09 | 8 | 985.9 |
| 20260506141649 | 62 | 5 | 1.0 | 3.0 | 0.05 | 0.23 | 0.09 | 8 | 985.9 |
| 20260506140202 | 62 | 265 | 5.0 | 5.0 | 0.05 | 0.23 | 0.09 | 8 | 985.9 |
| 20260506140149 | 62 | 213 | 4.0 | 5.0 | 0.05 | 0.23 | 0.09 | 8 | 985.9 |
| 20260506134701 | 62 | 260 | 3.0 | 11.0 | 0.05 | 0.25 | 0.09 | 8 | 986.0 |
| 20260506134648 | 62 | 242 | 5.0 | 11.0 | 0.05 | 0.25 | 0.09 | 8 | 986.0 |
| 20260506133201 | 65 | 4 | 8.0 | 14.0 | 0.00 | 0.20 | 0.03 | 7 | 986.1 |
| 20260506133148 | 65 | 233 | 9.0 | 14.0 | 0.00 | 0.20 | 0.03 | 7 | 986.1 |
| 20260506131648 | 67 | 193 | 6.0 | 9.0 | 0.00 | 0.20 | 0.03 | 7 | 986.0 |
| 20260506130201 | 70 | 258 | 12.0 | 14.0 | 0.00 | 0.20 | 0.03 | 6 | 986.2 |
| 20260506130148 | 70 | 208 | 7.0 | 14.0 | 0.00 | 0.20 | 0.03 | 6 | 986.2 |
| 20260506124649 | 69 | 332 | 5.0 | 18.0 | 0.00 | 0.26 | 0.03 | 7 | 986.3 |
| 20260506123148 | 68 | 215 | 8.0 | 12.0 | 0.00 | 0.26 | 0.03 | 7 | 986.5 |
| 20260506121648 | 64 | 252 | 6.0 | 10.0 | 0.00 | 0.26 | 0.03 | 8 | 986.5 |
| 20260506120148 | 66 | 263 | 7.0 | 15.0 | 0.00 | 0.26 | 0.03 | 8 | 986.5 |
| 20260506114649 | 68 | 258 | 12.0 | 19.0 | 0.00 | 0.48 | 0.03 | 6 | 986.3 |